Weather History for KANK - July, 2013

Change the Weather History Date:

Thursday, July 11, 2013

  Actual Average (KGUC) Record (KGUC)
Temperature  
Mean Temperature 73 °F -  
Max Temperature 92 °F 77 °F 89 °F (2003)
Min Temperature 54 °F 44 °F 39 °F (2003)
Cooling Degree Days 8    
Growing Degree Days 23 (Base 50)    
Moisture  
Dew Point 45 °F    
Average Humidity 46    
Maximum Humidity 92    
Minimum Humidity 11    
Precipitation  
Precipitation 0.00 in - - ()
Sea Level Pressure  
Sea Level Pressure 30.34 in    
Wind  
Wind Speed 6 mph (SSW)    
Max Wind Speed 16 mph    
Max Gust Speed 24 mph    
Visibility 10 miles    
Events      
Averages and records for this station are not official NWS values.
T = Trace of Precipitation, MM = Missing Value Source: NWS Daily Summary

Daily Weather History Graph

Daily Weather History Graph

Search for Another Location

Airport or City:

Trip Planner

Search our weather history database for the weather conditions in past years. The results will help you decide how hot, cold, wet, or windy it might be!

Date:

Astronomy

Jul. 11, 2013 Rise Set
Actual Time 5:49 AM MDT 8:29 PM MDT
Civil Twilight 5:18 AM MDT 9:00 PM MDT
Nautical Twilight 4:39 AM MDT 9:39 PM MDT
Astronomical Twilight 3:55 AM MDT 10:23 PM MDT
Moon 9:07 AM MDT (7/11) 10:14 PM MDT (7/11)
Length of Visible Light 15h 42m
Length of Day
14h 40m
Waxing Crescent, 11% of the Moon is Illuminated
Jul 11
Waxing Crescent
Jul 15
First Quarter
Jul 22
Full
Jul 29
Last Quarter
Aug 6
New

Hourly Weather History & Observations

Time (MDT) Temp. Dew Point Humidity Pressure Visibility Wind Dir Wind Speed Gust Speed Precip Events Conditions
12:15 AM 64.4 °F 53.6 °F 68% 30.46 in 10.0 mi Calm Calm - N/A   Clear
12:35 AM 63.3 °F 54.0 °F 71% 30.45 in 10.0 mi SE 5.8 mph - N/A   Clear
12:55 AM 63.0 °F 54.5 °F 74% 30.46 in 10.0 mi South 3.5 mph - N/A   Clear
1:15 AM 62.4 °F 54.3 °F 75% 30.46 in 10.0 mi SSW 3.5 mph - N/A   Clear
1:35 AM 61.7 °F 53.2 °F 74% 30.45 in 10.0 mi South 6.9 mph - N/A   Clear
1:55 AM 61.0 °F 54.3 °F 79% 30.45 in 10.0 mi SSE 5.8 mph - N/A   Clear
2:15 AM 60.3 °F 55.0 °F 83% 30.45 in 10.0 mi SSE 5.8 mph - N/A   Clear
2:35 AM 59.5 °F 54.7 °F 84% 30.45 in 10.0 mi South 5.8 mph - N/A   Clear
2:55 AM 59.2 °F 55.0 °F 86% 30.45 in 10.0 mi SSE 5.8 mph - N/A   Clear
3:15 AM 59.0 °F 55.0 °F 87% 30.44 in 10.0 mi SSE 6.9 mph - N/A   Clear
3:35 AM 58.8 °F 54.7 °F 86% 30.44 in 10.0 mi South 5.8 mph - N/A   Clear
3:55 AM 57.7 °F 52.3 °F 82% 30.44 in 10.0 mi SSW 6.9 mph - N/A   Clear
4:15 AM 56.1 °F 50.7 °F 82% 30.44 in 10.0 mi SW 8.1 mph - N/A   Clear
4:35 AM 55.0 °F 49.1 °F 80% 30.44 in 10.0 mi WSW 5.8 mph - N/A   Clear
4:55 AM 55.6 °F 48.7 °F 78% 30.44 in 10.0 mi SW 4.6 mph - N/A   Clear
5:15 AM 54.9 °F 50.2 °F 84% 30.44 in 10.0 mi West 4.6 mph - N/A   Clear
5:35 AM 54.7 °F 51.6 °F 89% 30.44 in 10.0 mi Calm Calm - N/A   Clear
5:55 AM 54.3 °F 51.1 °F 89% 30.44 in 10.0 mi Calm Calm - N/A   Clear
6:15 AM 54.3 °F 52.0 °F 92% 30.45 in 10.0 mi WSW 4.6 mph - N/A   Clear
6:35 AM 54.9 °F 49.6 °F 83% 30.45 in 10.0 mi West 3.5 mph - N/A   Clear
6:55 AM 56.8 °F 50.4 °F 79% 30.45 in 10.0 mi WSW 5.8 mph - N/A   Mostly Cloudy
7:15 AM 57.6 °F 51.3 °F 79% 30.45 in 10.0 mi West 3.5 mph - N/A   Overcast
7:35 AM 59.7 °F 52.7 °F 78% 30.44 in 10.0 mi NW 5.8 mph - N/A   Mostly Cloudy
7:55 AM 60.6 °F 53.6 °F 78% 30.44 in 10.0 mi NNW 3.5 mph - N/A   Scattered Clouds
8:15 AM 62.1 °F 53.6 °F 74% 30.43 in 10.0 mi North 6.9 mph - N/A   Clear
8:35 AM 63.5 °F 53.6 °F 70% 30.43 in 10.0 mi North 3.5 mph - N/A   Clear
8:55 AM 65.5 °F 53.4 °F 65% 30.42 in 10.0 mi North 4.6 mph - N/A   Clear
9:15 AM 67.5 °F 52.7 °F 59% 30.40 in 10.0 mi North 4.6 mph - N/A   Clear
9:35 AM 69.6 °F 52.7 °F 55% 30.39 in 10.0 mi North 6.9 mph - N/A   Clear
9:55 AM 72.7 °F 51.8 °F 48% 30.38 in 10.0 mi North 5.8 mph - N/A   Clear
10:15 AM 74.3 °F 50.5 °F 43% 30.37 in 10.0 mi Calm Calm - N/A   Clear
10:35 AM 78.6 °F 46.4 °F 32% 30.37 in 10.0 mi SE 4.6 mph - N/A   Clear
10:55 AM 79.9 °F 44.8 °F 29% 30.37 in 10.0 mi ESE 3.5 mph - N/A   Clear
11:15 AM 81.9 °F 44.6 °F 27% 30.35 in 10.0 mi SE 4.6 mph - N/A   Clear
11:35 AM 83.5 °F 43.9 °F 25% 30.34 in 10.0 mi SSW 6.9 mph - N/A   Clear
11:55 AM 85.5 °F 42.3 °F 22% 30.33 in 10.0 mi South 10.4 mph - N/A   Clear
12:15 PM 86.0 °F 40.6 °F 20% 30.32 in 10.0 mi SSW 11.5 mph - N/A   Clear
12:35 PM 87.1 °F 39.4 °F 19% 30.31 in 10.0 mi South 11.5 mph 17.3 mph N/A   Clear
12:55 PM 88.9 °F 36.3 °F 16% 30.30 in 10.0 mi SSW 8.1 mph 18.4 mph N/A   Clear
1:15 PM 88.7 °F 36.0 °F 15% 30.29 in 10.0 mi South 9.2 mph 16.1 mph N/A   Clear
1:35 PM 89.1 °F 32.2 °F 13% 30.29 in 10.0 mi South 8.1 mph - N/A   Clear
1:55 PM 89.4 °F 30.7 °F 12% 30.27 in 10.0 mi South 4.6 mph - N/A   Clear
2:15 PM 87.8 °F 29.1 °F 12% 30.27 in 10.0 mi SSW 3.5 mph - N/A   Clear
2:35 PM 88.9 °F 31.1 °F 13% 30.27 in 10.0 mi SSW 4.6 mph - N/A   Clear
2:55 PM 87.8 °F 33.4 °F 14% 30.26 in 10.0 mi SW 10.4 mph 16.1 mph N/A   Clear
3:15 PM 91.2 °F 29.5 °F 11% 30.25 in 10.0 mi WSW 10.4 mph - N/A   Clear
3:35 PM 88.9 °F 32.9 °F 14% 30.24 in 10.0 mi SW 9.2 mph 16.1 mph N/A   Clear
3:55 PM 91.2 °F 32.7 °F 13% 30.23 in 10.0 mi WSW 8.1 mph - N/A   Clear
4:15 PM 91.0 °F 31.8 °F 12% 30.22 in 10.0 mi Calm Calm - N/A   Clear
4:35 PM 92.5 °F 33.3 °F 12% 30.21 in 10.0 mi East 13.8 mph 19.6 mph N/A   Clear
4:55 PM 88.9 °F 40.6 °F 18% 30.22 in 10.0 mi ESE 16.1 mph 20.7 mph N/A   Mostly Cloudy
5:15 PM 82.4 °F 49.8 °F 32% 30.22 in 10.0 mi ENE 10.4 mph 20.7 mph N/A   Overcast
5:35 PM 82.2 °F 45.7 °F 28% 30.22 in 10.0 mi NE 8.1 mph - N/A   Mostly Cloudy
5:55 PM 85.1 °F 39.7 °F 20% 30.21 in 10.0 mi ESE 11.5 mph 18.4 mph N/A   Mostly Cloudy
6:15 PM 84.0 °F 35.6 °F 18% 30.21 in 10.0 mi ESE 13.8 mph 24.2 mph N/A   Scattered Clouds
6:35 PM 83.8 °F 35.6 °F 18% 30.21 in 10.0 mi ESE 16.1 mph 23.0 mph N/A   Scattered Clouds
6:55 PM 83.5 °F 36.7 °F 19% 30.22 in 10.0 mi SE 16.1 mph 23.0 mph N/A   Mostly Cloudy
7:15 PM 81.9 °F 41.0 °F 23% 30.24 in 10.0 mi SSE 6.9 mph 21.9 mph N/A   Overcast
7:35 PM 78.6 °F 42.8 °F 28% 30.25 in 10.0 mi ESE 3.5 mph - N/A   Overcast
7:55 PM 77.5 °F 42.3 °F 28% 30.24 in 10.0 mi ESE 12.7 mph 18.4 mph N/A   Overcast
8:15 PM 77.2 °F 42.1 °F 29% 30.25 in 10.0 mi East 4.6 mph - N/A   Mostly Cloudy
8:35 PM 77.4 °F 41.9 °F 28% 30.25 in 10.0 mi Calm Calm - N/A   Overcast
8:55 PM 76.3 °F 43.3 °F 31% 30.27 in 10.0 mi SW 3.5 mph - N/A   Mostly Cloudy
9:15 PM 76.1 °F 41.4 °F 29% 30.27 in 10.0 mi Calm Calm - N/A   Scattered Clouds
9:35 PM 75.2 °F 40.8 °F 29% 30.27 in 10.0 mi SW 6.9 mph - N/A   Clear
9:55 PM 73.6 °F 41.4 °F 31% 30.28 in 10.0 mi SW 9.2 mph - N/A   Clear
10:15 PM 73.6 °F 41.7 °F 32% 30.29 in 10.0 mi West 5.8 mph - N/A   Clear
10:35 PM 72.9 °F 42.4 °F 33% 30.30 in 10.0 mi West 5.8 mph - N/A   Mostly Cloudy
10:55 PM 73.6 °F 42.6 °F 33% 30.30 in 10.0 mi West 8.1 mph - N/A   Mostly Cloudy
11:15 PM 72.1 °F 43.7 °F 36% 30.30 in 10.0 mi West 8.1 mph - N/A   Mostly Cloudy
11:35 PM 73.0 °F 43.7 °F 35% 30.30 in 10.0 mi WSW 11.5 mph - N/A   Scattered Clouds
11:55 PM 72.1 °F 44.8 °F 37% 30.31 in 10.0 mi WSW 8.1 mph - N/A   Mostly Cloudy